Current Version              Previous Version:    01  02  03  04  05  06  07  08  09  10  11  12  13  14  15  16  17  18  19  20  21  22  23  24  25  26  27  28  29  30  
   31  32  33  34  35  36  37  38  39  40  41  42  43  44  45  46  47  48  49  50  51  52  53  54  55  56  57  58  59  60  

[Printable]
819
ASUS44 KFWD 220315
RWRTX
NORTH TEXAS HOURLY WEATHER ROUNDUP
NATIONAL WEATHER SERVICE FORT WORTH TX
1000 PM CDT TUE OCT 21 2014

NOTE: "FAIR" INDICATES FEW OR NO CLOUDS BELOW 12,000 FEET WITH NO
SIGNIFICANT WEATHER AND/OR OBSTRUCTIONS TO VISIBILITY.

TXZ118-119-220400-
DALLAS/FORT WORTH METROPLEX

CITY           SKY/WX    TMP DP  RH WIND       PRES   REMARKS
DFW AIRPORT    CLEAR     69  58  67 SE7       30.06R
DALLAS LOVE    PTCLDY    70  59  68 SE5       30.06R
FTW MEACHAM    CLEAR     70  58  65 SE6       30.06R
DAL-EXECUTIVE  CLEAR     69  58  67 SE6       30.06R
FTW-ALLIANCE   PTCLDY    66  57  72 SE5       30.06R
FTW-NAS-JRB    CLEAR     72  56  57 SE5       30.10R
FTW-SPINKS     CLEAR     65  56  73 CALM      30.08R
ARLINGTON      CLEAR     64  58  80 SE3       30.06R
GRAND PRAIRIE  CLEAR     70  59  68 SE3       30.08R
MESQUITE       CLEAR     65  59  80 CALM      30.07
LANCASTER      CLEAR     65  55  69 CALM      30.07R
$$

TXZ091>094-102>105-117-120-121-131>134-220400-
NORTH CENTRAL TEXAS

CITY           SKY/WX    TMP DP  RH WIND       PRES   REMARKS
SHRMAN/DENISON CLEAR     70  62  76 SE8       30.08R
GAINESVILLE    CLEAR     66  58  76 SE3       30.09R
BOWIE          CLEAR     64  55  73 CALM      30.07R
BRIDGEPORT     CLEAR     66  54  64 S6        30.08R
DECATUR        CLEAR     68  55  62 SE7       30.07S
DENTON         CLEAR     66  58  75 SE5       30.06R
MCKINNEY       CLEAR     66  59  78 CALM      30.07R
GREENVILLE     CLEAR     63  59  88 CALM      30.07S
ROCKWALL       CLEAR     69  61  76 E7        30.06R
TERRELL        CLEAR     66  60  81 CALM      30.07R
WAXAHACHIE     CLEAR     63  58  83 CALM      30.08R
CLEBURNE       CLEAR     70  59  68 E7        30.08R
GRANBURY       PTCLDY    66  53  61 CALM      30.08R
$$

TXZ083>090-098>101-113>116-127>130-139>142-154-155-220400-
WESTERN NORTH TEXAS

CITY           SKY/WX    TMP DP  RH WIND       PRES   REMARKS
WICHITA FALLS  CLEAR     65  51  60 SE8       30.05R
WF-KICKAPOO    CLEAR     65  50  59 SE6       30.07R
VERNON         CLEAR     68  52  56 SE8       30.06R
ABILENE        PTCLDY    67  50  54 SE7       30.07R
ABILENE-DYESS  PTCLDY    67  52  59 SE7       30.06R
BRECKENRIDGE   CLEAR     67  50  53 SE8       30.07R
GRAHAM         CLEAR     67  52  59 SE5       30.05R
MINERAL WELLS  CLEAR     65  51  60 SE7       30.05R
STEPHENVILLE   PTCLDY    66  48  53 SE5       30.10R
COMANCHE       PTCLDY    65  52  64 S5        30.08R
BROWNWOOD      PTCLDY    64  50  59 SE6       30.07R
COLEMAN        PTCLDY    68  53  57 SE6       30.08R
BRADY          CLEAR     66  52  59 E7        30.07R
$$

TXZ143>147-156>162-174-175-220400-
CENTRAL TEXAS

CITY           SKY/WX    TMP DP  RH WIND       PRES   REMARKS
WACO           PTCLDY    66  58  75 E5        30.05S
WACO-MCGREGOR  CLEAR     66  50  55 CALM      30.07R
HILLSBORO      CLEAR     70  56  62 E7        30.07R
CORSICANA      CLEAR     69  59  70 E5        30.07R
MEXIA          CLEAR     67  60  79 E3        30.06R
HEARNE         CLEAR     67  60  79 CALM      30.06R
CAMERON        PTCLDY    68  58  71 SE3       30.05R
TEMPLE         PTCLDY    66  52  59 E6        30.05R
KILLEEN        MOCLDY    72  50  46 E5        30.06R
KILLEEN-SKYLRK MOCLDY    68  50  52 E3        30.06R
FORT HOOD      MOCLDY    71  54  54 CALM      30.06R
GATESVILLE     PTCLDY    63  52  67 CALM      30.08R
HAMILTON       PTCLDY    64  48  56 S8        30.08R
LAMPASAS       MOCLDY    62  51  66 CALM      30.07R
$$

TXZ095>097-106>112-122>126-135>138-148>153-164>167-220400-
EAST TEXAS

CITY           SKY/WX    TMP DP  RH WIND       PRES   REMARKS
PARIS          CLEAR     64  55  72 S3        30.08R
SULPHUR SPRNGS CLEAR     65  61  85 CALM      30.09S
MOUNT PLEASANT   N/A     63  62  97 CALM      30.09R VSB 1
MINEOLA        CLEAR     63  63 100 CALM      30.08R
TYLER          CLEAR     67  61  81 E5        30.07R
LONGVIEW       CLEAR     65  62  90 CALM      30.06R
MARSHALL       CLEAR     65  62  91 CALM      30.09R
ATHENS         CLEAR     63  61  94 CALM      30.06R
PALESTINE      CLEAR     66  63  89 CALM      30.07R
JACKSONVILLE   CLEAR     69  62  78 CALM      30.09R
HENDERSON      CLEAR     63  62  98 CALM      30.08R FOG
NACOGDOCHES    CLEAR     63  59  88 CALM      30.07R
LUFKIN         CLEAR     67  61  81 CALM      30.06R
$$

SUPPLEMENTAL OBSERVATIONS (CENTRAL)

CITY           SKY/WX    TMP DP  RH WIND       PRES   REMARKS
LAKE TEXOMA      N/A    N/A N/A N/A S3          N/A
CADDO GRASSLND   N/A     63  59  88 CALM        N/A
PAT MAYSE LAKE   N/A     66  61  82 SE1         N/A
ATHENS           N/A     64  59  82 CALM        N/A
MCGREGOR         N/A     66  54  63 E2          N/A
$$

SUPPLEMENTAL OBSERVATIONS (WEST)

CITY           SKY/WX    TMP DP  RH WIND       PRES   REMARKS
LBJ GRASSLAND    N/A     70  55  60 SE7         N/A
HAMBY            N/A     64  52  63 SE6         N/A
IVIE RESERVOIR   N/A     70  54  56 E7          N/A
COLORADO BEND    N/A     64  45  48 SE5         N/A
$$

SUPPLEMENTAL OBSERVATIONS (EAST)

CITY           SKY/WX    TMP DP  RH WIND       PRES   REMARKS
CLARKSVILLE      N/A     64  59  82 CALM        N/A
TEXARKANA        N/A     59  55  88 CALM        N/A
CADDO LAKE       N/A     59  57  94 CALM        N/A
GILMER           N/A     63  59  88 CALM        N/A
HENDERSON        N/A     63  59  88 CALM        N/A
LUFKIN           N/A     63  59  88 MISG        N/A
N SABINE NF      N/A     63  59  88 MISG        N/A
$$

SUPPLEMENTAL OBSERVATIONS ARE A COLLECTION OF AUTOMATED INSTRUMENTS
THAT ARE MAINTAINED BY A VARIETY OF FEDERAL AND STATE AGENCIES.
CERTAIN ELEMENTS...SUCH AS HUMIDITY VALUES AND SUSTAINED WIND
SPEEDS...MAY BE APPROXIMATED.